Location: St. Louis
(38.6270°N, 90.1994°W)
Time: 03:52:50
(UTC-05:00)

RS-15 - Pass Details

Date: 29 January 2022
Orbit: 1881 x 2163 km, 64.8° (Epoch: 20 May)

Event Time Altitude Azimuth Distance (km) Brightness Sun altitude
Rises 21:22:58 0° 294° (WNW) 5,553 11.1 -47.4°
Reaches altitude 10° 21:28:08 10° 312° (NW) 4,599 10.4 -48.4°
Maximum altitude 21:36:02 19° 354° (N) 3,956 9.7 -49.8°
Enters shadow 21:40:05 16° 17° (NNE) 4,164 9.7 -50.5°
